Weather History for Panama City, FL

Change the Weather History Date:

Monday, January 14, 2013

  Actual Average Record
Temperature  
Mean Temperature 72 °F -  
Max Temperature 75 °F - 75 °F (2013)
Min Temperature 68 °F - 21 °F (2011)
Degree Days  
Heating Degree Days 0    
Cooling Degree Days 6    
Growing Degree Days 20 (Base 50)    
Moisture  
Dew Point 66 °F    
Average Humidity 87    
Maximum Humidity 94    
Minimum Humidity 78    
Precipitation  
Precipitation 0.00 in - 0.01 in (2014)
Month to date precipitation 0.04  
Year to date precipitation 0.04  
Sea Level Pressure  
Sea Level Pressure 30.12 in    
Wind  
Wind Speed 9 mph (SE)    
Max Wind Speed 15 mph    
Max Gust Speed 22 mph    
Visibility 9 miles    
Events      
T = Trace of Precipitation, MM = Missing Value Source: NWS Daily Summary

Daily Weather History Graph

Daily Weather History Graph

Search for Another Location

Airport:

Trip Planner

Search our weather history database for the weather conditions in past years. The results will help you decide how hot, cold, wet, or windy it might be!

Date:

Astronomy

Jan. 14, 2013 Rise Set
Actual Time 7:40 AM EST 6:04 PM EST
Civil Twilight 7:14 AM EST 6:30 PM EST
Nautical Twilight 6:45 AM EST 6:59 PM EST
Astronomical Twilight 6:16 AM EST 7:28 PM EST
Moon 9:30 AM EST (1/14) 9:30 PM EST (1/14)
Length of Visible Light 11h 15m
Length of Day
10h 23m
Waxing Crescent, 11% of the Moon is Illuminated
Jan 14
Waxing Crescent
Jan 18
First Quarter
Jan 26
Full
Feb 3
Last Quarter
Feb 10
New

Hourly Weather History & Observations

Time (EST) Temp. Dew Point Humidity Pressure Visibility Wind Dir Wind Speed Gust Speed Precip Events Conditions
12:53 AM 70.0 °F 66.9 °F 90% 30.11 in 9.0 mi SE 11.5 mph - N/A   Overcast
1:25 AM 69.8 °F 66.2 °F 88% 30.07 in 10.0 mi SE 10.4 mph - N/A   Overcast
1:53 AM 70.0 °F 66.9 °F 90% 30.10 in 9.0 mi SE 10.4 mph - N/A   Overcast
2:00 AM 69.8 °F 66.2 °F 88% 30.07 in 9.0 mi SE 9.2 mph - N/A   Overcast
2:53 AM 69.1 °F 66.9 °F 93% 30.10 in 8.0 mi SE 5.8 mph - N/A   Overcast
3:53 AM 70.0 °F 66.9 °F 90% 30.10 in 9.0 mi SE 6.9 mph - N/A   Overcast
4:53 AM 69.1 °F 66.9 °F 93% 30.10 in 9.0 mi SSE 8.1 mph - N/A   Overcast
5:53 AM 68.0 °F 66.0 °F 93% 30.11 in 6.0 mi SSE 4.6 mph - N/A   Overcast
6:53 AM 68.0 °F 66.0 °F 93% 30.12 in 5.0 mi Calm Calm - N/A   Overcast
7:19 AM 68.0 °F 66.2 °F 94% 30.08 in 4.0 mi Calm Calm - N/A   Overcast
7:53 AM 68.0 °F 66.0 °F 93% 30.14 in 1.0 mi ESE 5.8 mph - N/A   Overcast
8:46 AM 69.8 °F 66.2 °F 88% 30.12 in 4.0 mi SE 9.2 mph - N/A   Overcast
8:53 AM 69.1 °F 66.9 °F 93% 30.17 in 4.0 mi SE 8.1 mph - N/A   Overcast
9:53 AM 71.1 °F 66.9 °F 87% 30.18 in 9.0 mi SE 12.7 mph 20.7 mph N/A   Overcast
10:32 AM 71.6 °F 66.2 °F 83% 30.14 in 10.0 mi SSE 13.8 mph - N/A   Overcast
10:53 AM 71.1 °F 66.9 °F 87% 30.18 in 8.0 mi SE 11.5 mph - N/A   Overcast
11:39 AM 71.6 °F 66.2 °F 83% 30.12 in 10.0 mi SE 10.4 mph - N/A   Overcast
11:53 AM 73.0 °F 66.9 °F 81% 30.16 in 10.0 mi SE 12.7 mph - N/A   Overcast
12:53 PM 73.9 °F 66.9 °F 79% 30.13 in 10.0 mi SE 15.0 mph 21.9 mph N/A   Overcast
1:00 PM 73.4 °F 66.2 °F 78% 30.09 in 10.0 mi SE 15.0 mph 21.9 mph N/A   Mostly Cloudy
1:44 PM 73.4 °F 66.2 °F 78% 30.08 in 10.0 mi SE 15.0 mph - N/A   Mostly Cloudy
1:53 PM 73.9 °F 66.9 °F 79% 30.12 in 10.0 mi SE 11.5 mph 21.9 mph N/A   Mostly Cloudy
2:53 PM 73.0 °F 66.9 °F 81% 30.12 in 10.0 mi SE 12.7 mph - N/A   Scattered Clouds
3:53 PM 72.0 °F 66.9 °F 84% 30.14 in 10.0 mi SE 12.7 mph - N/A   Partly Cloudy
4:53 PM 71.6 °F 66.2 °F 83% 30.11 in 10.0 mi SE 13.8 mph - N/A   Partly Cloudy
5:53 PM 70.0 °F 64.9 °F 84% 30.15 in 10.0 mi SE 10.4 mph - N/A   Partly Cloudy
6:53 PM 70.0 °F 64.9 °F 84% 30.16 in 10.0 mi SE 10.4 mph - N/A   Overcast
7:53 PM 69.1 °F 64.9 °F 87% 30.15 in 10.0 mi SE 9.2 mph - N/A   Mostly Cloudy
8:53 PM 69.1 °F 64.9 °F 87% 30.14 in 10.0 mi SE 8.1 mph - N/A   Scattered Clouds
9:53 PM 68.0 °F 64.9 °F 90% 30.14 in 10.0 mi ESE 6.9 mph - N/A   Partly Cloudy
10:15 PM 68.0 °F 64.4 °F 88% 30.10 in 10.0 mi ESE 5.8 mph - N/A   Mostly Cloudy
10:53 PM 68.0 °F 66.0 °F 93% 30.13 in 10.0 mi SE 8.1 mph - N/A   Overcast
11:53 PM 69.1 °F 66.0 °F 90% 30.13 in 10.0 mi SE 8.1 mph - N/A   Overcast